[[{"header":{"parameterUnit":"m.s-1","parameterCategory":2,"la1":30.2991,"la2":30.254,"lo1":-89.0895,"lo2":-89.0444,"dy":0.0017,"dx":0.0017,"nx":28,"ny":28,"refTime":"2025-03-24T03:00:00:Z","depth":"0","parameterNumber":2,"parameterNumberName":"U-component_of_CURRENTS"},"data":[0,0,0,0,0,0,0,0,0,0,0,0,0,0,0,0,0,0,0,0,0,0,0,0,0,0,0,0,0,0,0,0,0,0,0,0,0,0,0,0,0,0,0,0,0,0,0,0,0,0,0,0,0,0,0,0,0,0,0.2815,0.2815,0,0.2765,0.2764,0.2763,0.2737,0.2737,0.2737,0.2737,0.2733,0.2732,0.2732,0,0,0,0,0,0,0,0,0,0,0,0,0,0.2935,0.2932,0.2815,0.2815,0.2815,0.2765,0.2764,0.2763,0.2737,0.2737,0.2737,0.2737,0.2733,0.2733,0.2732,0,0,0,0,0,0,0,0,0,0,0,0,0,0.2881,0.2932,0.2816,0.2798,0.2796,0.2765,0.2764,0.2763,0.2736,0.2737,0.2737,0.2738,0.2733,0.2733,0.2732,0.2721,0,0,0.273,0.273,0,0,0,0,0,0,0,0,0.2884,0.2876,0.2801,0.2799,0.2797,0.276,0.2805,0.2752,0.2736,0.2756,0.2737,0.2738,0.2748,0.2746,0.2731,0.2721,0.2721,0.273,0.273,0.273,0.273,0,0,0,0,0,0,0,0.2887,0.2878,0.2792,0.2801,0.2798,0.2809,0.2801,0.2795,0.2749,0.2754,0.2753,0.2752,0.2747,0.2731,0.2731,0.2721,0.273,0.273,0.273,0.2729,0.2711,0.2711,0,0,0,0,0,0,0.2897,0.2881,0.2794,0.2791,0.2846,0.2806,0.2797,0.2769,0.2748,0.2745,0.2752,0.2751,0.2732,0.2731,0.2731,0.2732,0.273,0.2729,0.2729,0.2711,0.2711,0.2711,0,0,0,0,0,0,0.2899,0.2888,0.2796,0.284,0.2829,0.2804,0.2773,0.2768,0.2755,0.2746,0.2744,0.2746,0.2732,0.2731,0.2711,0.2731,0.2729,0.2729,0.2711,0.2711,0.2711,0.2725,0,0,0,0,0,0,0.2902,0.2888,0.2873,0.2839,0.2827,0.2782,0.2773,0.2767,0.2756,0.2755,0.274,0.274,0.2732,0.2712,0.271,0.273,0.2728,0.2712,0.2711,0.2711,0.2725,0.2725,0.2726,0,0,0,0,0,0.2906,0.2888,0.2872,0.2862,0.2804,0.2783,0.2777,0.276,0.2756,0.275,0.2727,0.274,0.271,0.271,0.2709,0.273,0.2712,0.2711,0.2711,0.2724,0.2725,0.2726,0,0,0,0,0,0,0.2942,0.2883,0.2864,0.2831,0.281,0.278,0.2777,0.2762,0.2738,0.2741,0.2725,0.2722,0.2715,0.2714,0.2715,0.2722,0.2719,0.2718,0.2729,0.273,0.273,0.2746,0.2728,0,0,0,0,0,0.2939,0.29,0.2863,0.2838,0.283,0.2802,0.2793,0.2781,0.2758,0.2748,0.2732,0.2721,0.2711,0.2713,0.27,0.2701,0.2734,0.2716,0.2717,0.2717,0.2728,0.2781,0.2788,0.271,0.271,0.271,0,0,0.2952,0.2911,0.2893,0.2842,0.2826,0.281,0.2797,0.2788,0.2774,0.2753,0.273,0.2718,0.2708,0.2702,0.2702,0.2706,0.2759,0.2717,0.2717,0.2728,0.2781,0.2789,0.2796,0.2709,0.2709,0.2709,0,0,0.2952,0.2918,0.2885,0.2869,0.2842,0.2825,0.2824,0.2793,0.2782,0.2758,0.2741,0.274,0.2715,0.2717,0.2715,0.2714,0.2752,0.2711,0.2736,0.2787,0.2794,0.2801,0.2867,0.288,0.272,0.272,0.272,0,0.2964,0.2912,0.2881,0.2854,0.2846,0.2833,0.2818,0.2805,0.277,0.2766,0.2757,0.273,0.2729,0.273,0.273,0.272,0.2754,0.2736,0.279,0.2798,0.2805,0.287,0.2884,0.2721,0.2721,0.2721,0.2721,0,0.2935,0.2907,0.2898,0.2846,0.2839,0.283,0.2813,0.2806,0.2795,0.2782,0.2774,0.276,0.2751,0.2755,0.2742,0.2784,0.2795,0.278,0.2795,0.2814,0.2881,0.2896,0.2722,0.2722,0.2721,0.2721,0,0,0.2909,0.2878,0.2871,0.286,0.2836,0.2825,0.2821,0.2808,0.2811,0.2793,0.2799,0.2786,0.2785,0.2783,0.2774,0.2822,0.2908,0.2825,0.2827,0.2901,0.3035,0.2954,0.2962,0.2901,0.2903,0.2905,0.3068,0,0.2888,0.2851,0.2836,0.282,0.2809,0.281,0.2804,0.2802,0.2803,0.281,0.2819,0.282,0.2793,0.28,0.2837,0.2898,0.2944,0.2867,0.2996,0.3,0.2934,0.2975,0.2778,0.2897,0.3082,0.3084,0.3086,0,0.2844,0.283,0.2811,0.2807,0.2802,0.2793,0.2799,0.2793,0.2815,0.2822,0.2834,0.2841,0.2901,0.2873,0.299,0.2942,0.2986,0.303,0.3037,0.2967,0.2945,0.2903,0.2917,0.2831,0.3108,0.3107,0.3105,0,0.2822,0.2804,0.2792,0.279,0.2787,0.2785,0.2782,0.2796,0.2803,0.2842,0.287,0.291,0.2956,0.3018,0.3093,0.3057,0.3234,0.3199,0.3164,0.3161,0.3021,0.3,0.2972,0.3274,0.3274,0.3273,0.3273,0,0.2781,0.2769,0.2785,0.2774,0.2773,0.2776,0.2776,0.2785,0.2816,0.2844,0.2873,0.2916,0.2996,0.3088,0.3138,0.3206,0.3272,0.3186,0.3196,0.3019,0.2996,0.2936,0.2914,0.328,0.3278,0.3277,0.3276,0,0.2738,0.2744,0.2742,0.2755,0.2758,0.2757,0.2768,0.2779,0.2811,0.286,0.2882,0.2965,0.3084,0.3157,0.3294,0.3266,0.3243,0.334,0.3131,0.3111,0.2951,0.2936,0.2877,0.28,0.3333,0.3332,0.3331,0,0.2706,0.2705,0.2731,0.2741,0.2741,0.2745,0.2752,0.2771,0.2795,0.2887,0.2922,0.304,0.3115,0.3273,0.3258,0.3329,0.323,0.3154,0.3028,0.2927,0.2921,0.2838,0.2772,0.2872,0.2867,0.2864,0.286,0,0.2667,0.2686,0.2691,0.2716,0.2726,0.2739,0.2754,0.2771,0.2817,0.2862,0.296,0.3037,0.3141,0.3106,0.3146,0.3147,0.2969,0.3076,0.3022,0.2599,0.2458,0.2392,0.2808,0.2827,0.283,0.2833,0.2835,0.2836,0.2648,0.2651,0.2672,0.2683,0.2704,0.2725,0.271,0.2748,0.2777,0.2806,0.2933,0.2963,0.2933,0.2954,0.294,0.2717,0.2781,0.258,0.2593,0.2538,0.2368,0.2713,0.2699,0.2701,0.2703,0.2705,0.2707,0,0.2606,0.2614,0.2638,0.2645,0.2643,0.2673,0.2701,0.2671,0.2678,0.2724,0.2773,0.2693,0.2615,0.2555,0.2358,0.2242,0.2145,0.2166,0.1996,0.1975,0.2322,0.22,0.2011,0.2011,0.2011,0.2011,0.2011,0.2011,0.2577,0.2571,0.258,0.2566,0.2576,0.2543,0.2542,0.2521,0.2523,0.243,0.2339,0.2344,0.2295,0.2151,0.1948,0.1889,0.177,0.1656,0.1743,0.1967,0.2006,0.2043,0.1921,0.1677,0.1676,0.1254,0.1251,0.1249]},{"header":{"parameterUnit":"m.s-1","parameterCategory":2,"la1":30.2991,"la2":30.254,"lo1":-89.0895,"lo2":-89.0444,"dy":0.0017,"dx":0.0017,"nx":28,"ny":28,"refTime":"2025-03-24T03:00:00:Z","depth":"0","parameterNumber":3,"parameterNumberName":"V-component_of_CURRENTS"},"data":[0,0,0,0,0,0,0,0,0,0,0,0,0,0,0,0,0,0,0,0,0,0,0,0,0,0,0,0,0,0,0,0,0,0,0,0,0,0,0,0,0,0,0,0,0,0,0,0,0,0,0,0,0,0,0,0,0,0,-0.0451,-0.0451,0,-0.0434,-0.0434,-0.0433,-0.0445,-0.0445,-0.0446,-0.0446,-0.0525,-0.0526,-0.0528,0,0,0,0,0,0,0,0,0,0,0,0,0,-0.0497,-0.0496,-0.0451,-0.0451,-0.0451,-0.0434,-0.0434,-0.0433,-0.0445,-0.0445,-0.0446,-0.0447,-0.0524,-0.0526,-0.0528,0,0,0,0,0,0,0,0,0,0,0,0,0,-0.0478,-0.0496,-0.0452,-0.0455,-0.0455,-0.0434,-0.0434,-0.0433,-0.0444,-0.0445,-0.0446,-0.0447,-0.0524,-0.0526,-0.0528,-0.0525,0,0,-0.0535,-0.0536,0,0,0,0,0,0,0,0,-0.0479,-0.0476,-0.0455,-0.0455,-0.0455,-0.0443,-0.0478,-0.0469,-0.0444,-0.0448,-0.0446,-0.0447,-0.0506,-0.051,-0.0502,-0.0529,-0.0532,-0.0535,-0.0537,-0.0538,-0.0539,0,0,0,0,0,0,0,-0.048,-0.0477,-0.0444,-0.0454,-0.0455,-0.0458,-0.0456,-0.0476,-0.0474,-0.0448,-0.0449,-0.0447,-0.0507,-0.05,-0.0505,-0.0534,-0.0535,-0.0537,-0.0539,-0.054,-0.0561,-0.056,0,0,0,0,0,0,-0.0482,-0.0478,-0.0445,-0.0444,-0.047,-0.0457,-0.0455,-0.0445,-0.0471,-0.0476,-0.0446,-0.0448,-0.0496,-0.0502,-0.0508,-0.0493,-0.0538,-0.054,-0.0541,-0.0562,-0.0561,-0.056,0,0,0,0,0,0,-0.0483,-0.0479,-0.0445,-0.0461,-0.0457,-0.0455,-0.0445,-0.0445,-0.0438,-0.047,-0.0476,-0.044,-0.0497,-0.0504,-0.0506,-0.0498,-0.0541,-0.0543,-0.0563,-0.0562,-0.056,-0.0474,0,0,0,0,0,0,-0.0484,-0.0479,-0.0472,-0.0461,-0.0457,-0.0427,-0.0444,-0.0444,-0.0436,-0.0438,-0.0466,-0.0474,-0.0498,-0.0502,-0.0508,-0.0502,-0.0545,-0.0564,-0.0562,-0.0561,-0.0478,-0.047,-0.0463,0,0,0,0,0,-0.0485,-0.0472,-0.0471,-0.0467,-0.0447,-0.0427,-0.0424,-0.0426,-0.0435,-0.0425,-0.0434,-0.0473,-0.0497,-0.0502,-0.051,-0.0504,-0.0565,-0.0563,-0.0561,-0.0481,-0.0471,-0.0463,0,0,0,0,0,0,-0.0497,-0.0471,-0.047,-0.0453,-0.0438,-0.0429,-0.0421,-0.0421,-0.0418,-0.0424,-0.0454,-0.0461,-0.046,-0.0492,-0.0497,-0.0506,-0.0542,-0.0541,-0.0478,-0.047,-0.0462,-0.0444,-0.0547,0,0,0,0,0,-0.0493,-0.047,-0.0455,-0.044,-0.0433,-0.0425,-0.0418,-0.0417,-0.0414,-0.0414,-0.043,-0.045,-0.0458,-0.047,-0.0484,-0.0487,-0.0488,-0.0492,-0.0485,-0.0478,-0.0468,-0.0445,-0.0434,-0.0554,-0.0554,-0.0554,0,0,-0.0498,-0.0477,-0.0468,-0.044,-0.0431,-0.0405,-0.0423,-0.0408,-0.0383,-0.0425,-0.0402,-0.0422,-0.045,-0.0445,-0.045,-0.0472,-0.0442,-0.0476,-0.047,-0.0463,-0.0442,-0.043,-0.042,-0.0553,-0.0553,-0.0553,0,0,-0.0478,-0.0473,-0.044,-0.0425,-0.0403,-0.0394,-0.0388,-0.0374,-0.0364,-0.0345,-0.0364,-0.0369,-0.0391,-0.0397,-0.0407,-0.0369,-0.0398,-0.0389,-0.0343,-0.032,-0.0309,-0.03,-0.0272,-0.0261,-0.0392,-0.0391,-0.0391,0,-0.0481,-0.0438,-0.0431,-0.0396,-0.0378,-0.0386,-0.0351,-0.0338,-0.0324,-0.0307,-0.0331,-0.0331,-0.0363,-0.0341,-0.0332,-0.0352,-0.0341,-0.0372,-0.0308,-0.0299,-0.0291,-0.0264,-0.0253,-0.0387,-0.0388,-0.0388,-0.0388,0,-0.0429,-0.0402,-0.0385,-0.0337,-0.0319,-0.0294,-0.0276,-0.0257,-0.0255,-0.0244,-0.0221,-0.0248,-0.0251,-0.0266,-0.029,-0.0253,-0.0263,-0.0293,-0.0325,-0.0273,-0.0249,-0.0239,-0.0381,-0.0382,-0.0384,-0.0385,0,0,-0.0408,-0.0356,-0.0348,-0.0319,-0.0285,-0.0262,-0.0222,-0.0179,-0.0145,-0.0146,-0.0101,-0.0121,-0.0142,-0.0154,-0.0186,-0.0175,-0.0115,-0.021,-0.0211,-0.0172,-0.005,-0.0051,-0.004,-0.013,-0.0128,-0.0127,-0.005,0,-0.0363,-0.0293,-0.0275,-0.0214,-0.018,-0.0171,-0.0126,-0.0095,-0.0081,-0.0044,-0.0061,-0.0042,-0.0097,-0.0099,-0.0094,-0.0107,-0.0087,-0.0132,-0.0116,-0.0115,-0.0113,-0.0028,-0.0036,0.0032,-0.004,-0.0039,-0.0038,0,-0.0302,-0.0265,-0.02,-0.0142,-0.0125,-0.0091,-0.0027,0.001,0.0051,0.0063,0.0073,0.0056,0.0074,0.0013,0.0034,0.001,-0.001,-0.0025,-0.0023,-0.0047,-0.0096,-0.0036,0.0052,-0.0048,-0.0023,-0.0024,-0.0025,0,-0.027,-0.0205,-0.0152,-0.0135,-0.0077,-0.004,-0.0006,0.0041,0.0088,0.0128,0.0161,0.0167,0.0183,0.0164,0.0128,0.0087,0.0158,0.0093,0.0081,0.008,0.0065,0.006,0.0065,0.0119,0.0119,0.0119,0.0119,0,-0.0214,-0.0172,-0.0136,-0.0107,-0.0036,-0.001,0.0069,0.0103,0.016,0.0232,0.0213,0.0273,0.0223,0.0246,0.019,0.0188,0.0211,0.0119,0.0111,0.0095,0.0092,-0.0007,-0.0081,0.0122,0.0121,0.0121,0.012,0,-0.0177,-0.0154,-0.0096,-0.0041,-0.0018,0.003,0.0117,0.0174,0.022,0.0313,0.0333,0.0377,0.0422,0.0378,0.0366,0.0285,0.0216,0.0254,0.0243,0.0232,0.0095,0.0026,0.0029,-0.0008,0.025,0.0251,0.0252,0,-0.0148,-0.0118,-0.0059,-0.002,0.0009,0.0079,0.0139,0.0199,0.0264,0.0389,0.0444,0.0514,0.0597,0.0587,0.0472,0.0411,0.0286,0.0317,0.0225,0.0119,0.0036,-0.0018,-0.0054,0.0244,0.0245,0.0245,0.0245,0,-0.0102,-0.0089,-0.0043,0.003,0.0092,0.0165,0.0251,0.0312,0.0402,0.0507,0.0656,0.0738,0.0737,0.0697,0.0585,0.05,0.0235,0.032,0.0218,0.005,-0.0013,-0.0063,0.0161,0.0248,0.0248,0.0248,0.0248,0.0247,-0.0071,-0.0033,0.0024,0.0097,0.0166,0.0255,0.033,0.0439,0.0577,0.0765,0.0817,0.1,0.086,0.0728,0.0592,0.0293,0.0284,0.0174,0.0109,0.0073,0.0008,0.0245,0.0309,0.0309,0.0309,0.0309,0.031,0,-0.0015,0.0029,0.0093,0.0187,0.0269,0.0293,0.0414,0.051,0.0695,0.0908,0.1074,0.1138,0.0959,0.0723,0.0325,0.0115,0.0015,-0.0012,-0.0104,-0.0125,0.0101,0.0068,0.0074,0.0074,0.0075,0.0075,0.0075,0.0075,0.0027,0.0098,0.0129,0.0264,0.0329,0.0447,0.0518,0.0674,0.0842,0.1133,0.1298,0.1396,0.1182,0.0472,-0.0,-0.0113,-0.0278,-0.0306,-0.0369,-0.0252,-0.0241,-0.023,-0.0277,-0.0343,-0.0343,-0.0574,-0.0576,-0.0578]}],[{"header":{"parameterUnit":"m.s-1","parameterCategory":2,"la1":30.2991,"la2":30.254,"lo1":-89.0895,"lo2":-89.0444,"dy":0.0017,"dx":0.0017,"nx":28,"ny":28,"refTime":"2025-03-24T03:00:00:Z","depth":"2","parameterNumber":2,"parameterNumberName":"U-component_of_CURRENTS"},"data":[0,0,0,0,0,0,0,0,0,0,0,0,0,0,0,0,0,0,0,0,0,0,0,0,0,0,0,0,0,0,0,0,0,0,0,0,0,0,0,0,0,0,0,0,0,0,0,0,0,0,0,0,0,0,0,0,0,0,0.1672,0.1671,0,0.166,0.166,0.166,0.1673,0.1674,0.1674,0.1674,0.1669,0.1669,0.1669,0,0,0,0,0,0,0,0,0,0,0,0,0,0.1691,0.1691,0.1672,0.1671,0.1671,0.166,0.166,0.166,0.1673,0.1674,0.1674,0.1674,0.167,0.1669,0.1669,0,0,0,0,0,0,0,0,0,0,0,0,0,0.1684,0.1691,0.1672,0.1674,0.1674,0.166,0.166,0.166,0.1673,0.1674,0.1674,0.1675,0.167,0.1669,0.1669,0.1657,0,0,0.1667,0.1667,0,0,0,0,0,0,0,0,0.1684,0.1684,0.1674,0.1674,0.1674,0.1666,0.1665,0.1659,0.1673,0.1676,0.1674,0.1675,0.1667,0.1667,0.1667,0.1657,0.1657,0.1667,0.1667,0.1666,0.1666,0,0,0,0,0,0,0,0.1685,0.1684,0.167,0.1674,0.1674,0.1671,0.1671,0.1664,0.1672,0.1676,0.1676,0.1671,0.1667,0.1668,0.1667,0.1657,0.1667,0.1666,0.1666,0.1666,0.17,0.1702,0,0,0,0,0,0,0.1681,0.1685,0.167,0.1669,0.1677,0.167,0.167,0.167,0.1672,0.1671,0.1671,0.1672,0.1669,0.1668,0.1667,0.1705,0.1666,0.1666,0.1665,0.1699,0.1701,0.1702,0,0,0,0,0,0,0.1682,0.168,0.167,0.1674,0.1672,0.1669,0.167,0.167,0.1693,0.1667,0.1667,0.1696,0.1669,0.1668,0.1685,0.1703,0.1665,0.1665,0.1698,0.17,0.1701,0.1748,0,0,0,0,0,0,0.1683,0.1681,0.1686,0.1674,0.1672,0.1679,0.1669,0.1669,0.1686,0.1688,0.1688,0.1687,0.1669,0.1686,0.1684,0.1701,0.1665,0.1696,0.1699,0.1701,0.1745,0.1751,0.1756,0,0,0,0,0,0.1684,0.1685,0.1687,0.1685,0.1678,0.168,0.168,0.168,0.1687,0.1702,0.1705,0.1688,0.17,0.1686,0.1684,0.1702,0.1695,0.1698,0.1701,0.1742,0.175,0.1756,0,0,0,0,0,0,0.1683,0.1685,0.1688,0.1686,0.1692,0.1682,0.1688,0.1696,0.171,0.171,0.1701,0.17,0.1724,0.1709,0.1695,0.1721,0.1695,0.1698,0.1728,0.1735,0.1741,0.1756,0.1664,0,0,0,0,0,0.1688,0.1702,0.1696,0.17,0.1701,0.1703,0.1707,0.1706,0.171,0.1718,0.1717,0.1719,0.1729,0.1731,0.1731,0.1741,0.1755,0.1753,0.1759,0.1764,0.1777,0.1817,0.1828,0.1711,0.1711,0.1711,0,0,0.1687,0.1692,0.1697,0.1703,0.1705,0.1711,0.1708,0.1714,0.1734,0.1713,0.1742,0.1741,0.1739,0.1754,0.1763,0.1746,0.1807,0.1768,0.1772,0.1782,0.1821,0.1833,0.1843,0.1713,0.1713,0.1713,0,0,0.1689,0.1699,0.171,0.1721,0.1726,0.1725,0.1736,0.1736,0.1757,0.1778,0.1774,0.1793,0.1795,0.1802,0.1807,0.1849,0.1841,0.1842,0.1878,0.1916,0.1926,0.1935,0.1975,0.1987,0.1839,0.1839,0.184,0,0.1688,0.1698,0.1713,0.1725,0.1731,0.1739,0.1745,0.1769,0.1778,0.1792,0.1794,0.1822,0.1824,0.1854,0.1872,0.1863,0.188,0.1848,0.1925,0.1934,0.1942,0.1981,0.1993,0.1842,0.1842,0.1841,0.1841,0,0.1695,0.1709,0.1716,0.1739,0.1751,0.1757,0.178,0.1798,0.1817,0.1833,0.1875,0.1886,0.19,0.1908,0.1906,0.196,0.1953,0.1931,0.1906,0.1957,0.1994,0.2007,0.1846,0.1845,0.1844,0.1843,0,0,0.1679,0.1712,0.1719,0.1732,0.1756,0.1765,0.1798,0.1824,0.1857,0.1881,0.1928,0.1959,0.1965,0.1973,0.1974,0.2013,0.2095,0.2,0.2001,0.204,0.2186,0.2079,0.2082,0.2082,0.2085,0.2086,0.2191,0,0.168,0.1701,0.1721,0.1746,0.1753,0.1775,0.1813,0.1843,0.1878,0.1927,0.1961,0.2012,0.1993,0.2015,0.2047,0.2088,0.2129,0.207,0.2132,0.2134,0.2032,0.2093,0.1923,0.1992,0.2203,0.2205,0.2207,0,0.1678,0.1696,0.171,0.1751,0.1758,0.1779,0.1825,0.1862,0.193,0.1966,0.2007,0.2042,0.2112,0.2096,0.2185,0.2145,0.2175,0.2203,0.2206,0.2099,0.205,0.1974,0.2006,0.2227,0.2226,0.2224,0.2223,0,0.1652,0.169,0.17,0.1714,0.1758,0.1775,0.1806,0.1865,0.1915,0.2003,0.2048,0.2114,0.2167,0.2216,0.2258,0.2238,0.2352,0.2328,0.226,0.2253,0.2117,0.2092,0.24,0.24,0.24,0.2399,0.2399,0,0.1636,0.1654,0.1694,0.1701,0.1733,0.1772,0.1819,0.1863,0.1948,0.2011,0.2072,0.2127,0.2203,0.2261,0.2292,0.2306,0.2376,0.2286,0.2277,0.2127,0.2103,0.2306,0.2294,0.2403,0.2402,0.2402,0.2401,0,0.1606,0.1628,0.1638,0.1686,0.1716,0.1734,0.1825,0.1854,0.1952,0.2039,0.208,0.217,0.2241,0.2293,0.2383,0.2341,0.2379,0.2363,0.2178,0.2143,0.2254,0.2243,0.2322,0.2319,0.2317,0.2315,0.2313,0,0.1587,0.1589,0.1626,0.1638,0.1661,0.1713,0.1742,0.184,0.189,0.2049,0.2085,0.2191,0.2214,0.2283,0.2267,0.2294,0.2349,0.2126,0.205,0.2265,0.2249,0.2241,0.2234,0.1907,0.1902,0.1898,0.1895,0,0.1547,0.1555,0.1566,0.1602,0.1621,0.1658,0.1729,0.1774,0.1894,0.196,0.2052,0.2092,0.2149,0.2069,0.2079,0.2068,0.2105,0.2043,0.234,0.1928,0.1874,0.1857,0.1864,0.1859,0.1863,0.1865,0.1867,0.1868,0.1514,0.1515,0.1535,0.1557,0.1583,0.1614,0.1603,0.1686,0.1745,0.1827,0.1926,0.1912,0.1936,0.1847,0.1794,0.176,0.1911,0.1824,0.1837,0.1854,0.1762,0.1704,0.1642,0.1644,0.1646,0.1648,0.1649,0,0.1479,0.1497,0.1507,0.1506,0.1496,0.1551,0.1591,0.1557,0.1567,0.1663,0.1695,0.156,0.1501,0.1541,0.1433,0.1414,0.1406,0.1353,0.134,0.1377,0.1409,0.1294,0.1051,0.1049,0.1047,0.1045,0,0,0.1462,0.1455,0.1457,0.1424,0.1436,0.139,0.1387,0.135,0.1381,0.1352,0.1341,0.1437,0.15,0.1264,0.1227,0.1123,0.1239,0.1073,0.1559,0.1583,0.1612,0.1692,0.1557,0,0,0,0,0]},{"header":{"parameterUnit":"m.s-1","parameterCategory":2,"la1":30.2991,"la2":30.254,"lo1":-89.0895,"lo2":-89.0444,"dy":0.0017,"dx":0.0017,"nx":28,"ny":28,"refTime":"2025-03-24T03:00:00:Z","depth":"2","parameterNumber":3,"parameterNumberName":"V-component_of_CURRENTS"},"data":[0,0,0,0,0,0,0,0,0,0,0,0,0,0,0,0,0,0,0,0,0,0,0,0,0,0,0,0,0,0,0,0,0,0,0,0,0,0,0,0,0,0,0,0,0,0,0,0,0,0,0,0,0,0,0,0,0,0,0.0179,0.0179,0,0.0178,0.0178,0.0178,0.0162,0.0162,0.0162,0.0162,0.0144,0.0143,0.0143,0,0,0,0,0,0,0,0,0,0,0,0,0,0.0147,0.0147,0.0179,0.0179,0.018,0.0178,0.0178,0.0178,0.0162,0.0162,0.0162,0.0162,0.0144,0.0143,0.0143,0,0,0,0,0,0,0,0,0,0,0,0,0,0.0152,0.0148,0.0179,0.0174,0.0173,0.0178,0.0178,0.0178,0.0162,0.0162,0.0162,0.0161,0.0144,0.0143,0.0143,0.0144,0,0,0.0141,0.0141,0,0,0,0,0,0,0,0,0.0152,0.0153,0.0174,0.0174,0.0174,0.0172,0.016,0.0167,0.0162,0.0164,0.0162,0.0161,0.0153,0.0152,0.0149,0.0143,0.0143,0.0141,0.0141,0.0141,0.0141,0,0,0,0,0,0,0,0.0152,0.0153,0.0176,0.0175,0.0174,0.0164,0.0165,0.0161,0.0157,0.0163,0.0163,0.0167,0.0153,0.0149,0.0148,0.0142,0.0141,0.0141,0.014,0.014,0.0117,0.0116,0,0,0,0,0,0,0.0159,0.0153,0.0176,0.0176,0.0165,0.0165,0.0166,0.0171,0.0158,0.0157,0.0167,0.0167,0.015,0.0149,0.0148,0.0145,0.0141,0.014,0.014,0.0117,0.0117,0.0116,0,0,0,0,0,0,0.0158,0.0161,0.0176,0.0167,0.0168,0.0167,0.0172,0.0171,0.0162,0.0162,0.0159,0.016,0.015,0.0148,0.0136,0.0144,0.014,0.0139,0.0117,0.0117,0.0116,0.0141,0,0,0,0,0,0,0.0157,0.0161,0.0161,0.0167,0.0169,0.0179,0.0173,0.0171,0.0167,0.0165,0.0154,0.0153,0.015,0.0137,0.0135,0.0143,0.0139,0.0118,0.0117,0.0117,0.0141,0.0141,0.0142,0,0,0,0,0,0.0156,0.0163,0.0161,0.0164,0.0172,0.0179,0.0179,0.0175,0.0167,0.0165,0.0152,0.0153,0.0132,0.0136,0.0135,0.0142,0.0118,0.0117,0.0117,0.014,0.0141,0.0142,0,0,0,0,0,0,0.0152,0.0162,0.0161,0.017,0.0174,0.0178,0.0178,0.0172,0.016,0.0159,0.0148,0.0146,0.0139,0.0132,0.0136,0.0132,0.0126,0.0125,0.0144,0.0145,0.0146,0.0159,0.0139,0,0,0,0,0,0.0152,0.0155,0.0165,0.0171,0.0175,0.0174,0.0174,0.0174,0.0169,0.0163,0.0155,0.0145,0.0136,0.0133,0.0126,0.0123,0.0119,0.0125,0.0126,0.0127,0.0135,0.0127,0.0128,0.0114,0.0114,0.0114,0,0,0.0152,0.0158,0.016,0.0169,0.0172,0.0184,0.0172,0.0179,0.0184,0.0164,0.0162,0.0148,0.0134,0.0132,0.0128,0.0127,0.0128,0.0126,0.0127,0.0135,0.0126,0.0128,0.0129,0.0113,0.0113,0.0114,0,0,0.0161,0.0161,0.017,0.0174,0.0184,0.0187,0.0188,0.0192,0.0188,0.0183,0.017,0.0156,0.0145,0.0139,0.0133,0.0131,0.0131,0.0129,0.0148,0.014,0.0141,0.0142,0.014,0.0141,0.0132,0.0132,0.0132,0,0.0162,0.0178,0.0173,0.0186,0.0196,0.019,0.0208,0.0203,0.02,0.0202,0.0186,0.0167,0.015,0.015,0.0146,0.0135,0.0133,0.0149,0.0142,0.0143,0.0144,0.0142,0.0142,0.0133,0.0133,0.0133,0.0132,0,0.0183,0.0193,0.02,0.0215,0.0222,0.0236,0.024,0.0241,0.0232,0.0229,0.0222,0.0194,0.0185,0.0174,0.0158,0.0159,0.0157,0.0144,0.0144,0.0148,0.0144,0.0144,0.0134,0.0134,0.0134,0.0133,0,0,0.0193,0.0213,0.0214,0.023,0.0242,0.0254,0.0264,0.0278,0.0289,0.0269,0.028,0.0245,0.023,0.0221,0.0199,0.0187,0.0182,0.0171,0.017,0.0177,0.0172,0.0144,0.0141,0.0172,0.0172,0.0172,0.0168,0,0.0213,0.0246,0.0249,0.028,0.0302,0.0302,0.0314,0.0321,0.0318,0.0326,0.0294,0.0294,0.0248,0.0247,0.0224,0.0201,0.0184,0.0185,0.0161,0.016,0.0142,0.0141,0.0149,0.0144,0.0168,0.0168,0.0168,0,0.0237,0.0258,0.0295,0.0325,0.0335,0.0349,0.0377,0.0388,0.0392,0.0391,0.0379,0.0357,0.0338,0.0296,0.0251,0.0256,0.0214,0.0187,0.0186,0.0154,0.0132,0.0143,0.0143,0.0168,0.0168,0.0168,0.0168,0,0.0258,0.029,0.0322,0.0332,0.0364,0.0378,0.0394,0.0407,0.0432,0.0437,0.046,0.042,0.0421,0.0358,0.0288,0.0276,0.0241,0.0216,0.015,0.0148,0.0147,0.0144,0.0178,0.0178,0.0178,0.0178,0.0178,0,0.0285,0.0309,0.0334,0.0354,0.0396,0.0404,0.0449,0.0459,0.0489,0.054,0.0496,0.0527,0.0437,0.0403,0.032,0.0241,0.0262,0.0158,0.0145,0.0154,0.0152,0.0166,0.0165,0.0178,0.0178,0.0178,0.0178,0,0.0302,0.0318,0.0362,0.0398,0.041,0.0441,0.0496,0.0538,0.0553,0.0622,0.0633,0.062,0.058,0.0479,0.0392,0.0297,0.0214,0.0176,0.0195,0.0182,0.012,0.012,0.0108,0.0107,0.0106,0.0105,0.0105,0,0.0315,0.0338,0.0393,0.043,0.0447,0.0493,0.054,0.057,0.0623,0.0688,0.0733,0.0713,0.0709,0.0558,0.0395,0.0246,0.0222,0.0143,0.0106,0.0124,0.0112,0.0114,0.0115,0.0119,0.0118,0.0118,0.0118,0,0.0341,0.0359,0.0398,0.047,0.0525,0.0595,0.0658,0.0709,0.0768,0.0831,0.0902,0.09,0.0757,0.0603,0.0382,0.0275,0.0163,0.013,0.0156,0.0127,0.0132,0.0121,0.0122,0.0115,0.0115,0.0115,0.0115,0.0115,0.0361,0.0393,0.0446,0.0515,0.0588,0.0687,0.076,0.0833,0.093,0.1015,0.1008,0.0998,0.0816,0.0528,0.0343,0.0143,0.0152,0.007,0.0072,0.0075,0.0069,0.007,0.0042,0.0041,0.0041,0.0041,0.0041,0,0.0386,0.0424,0.049,0.0586,0.0675,0.0709,0.0838,0.0913,0.1034,0.1079,0.1117,0.094,0.0758,0.055,0.0251,0.007,0.0061,0.0012,0.0041,0.0046,0.0049,0.0043,0.0008,0.0007,0.0007,0.0006,0,0,0.0402,0.0463,0.0497,0.0636,0.0711,0.0847,0.0931,0.1037,0.1091,0.1129,0.1107,0.1054,0.0807,0.0583,0.0346,0.0177,0.0152,0.0142,0.0187,0.0254,0.026,0.0099,0.0095,0,0,0,0,0]}],[{"header":{"parameterUnit":"m.s-1","parameterCategory":2,"la1":30.2991,"la2":30.254,"lo1":-89.0895,"lo2":-89.0444,"dy":0.0017,"dx":0.0017,"nx":28,"ny":28,"refTime":"2025-03-24T03:00:00:Z","depth":"4","parameterNumber":2,"parameterNumberName":"U-component_of_CURRENTS"},"data":[0,0,0,0,0,0,0,0,0,0,0,0,0,0,0,0,0,0,0,0,0,0,0,0,0,0,0,0,0,0,0,0,0,0,0,0,0,0,0,0,0,0,0,0,0,0,0,0,0,0,0,0,0,0,0,0,0,0,0.0819,0.0819,0,0.0854,0.0854,0.0854,0.0891,0.0892,0.0892,0.0893,0.0908,0.0908,0.0908,0,0,0,0,0,0,0,0,0,0,0,0,0,0.0779,0.0779,0.0819,0.082,0.082,0.0854,0.0854,0.0854,0.0891,0.0892,0.0892,0.0893,0.0908,0.0908,0.0908,0,0,0,0,0,0,0,0,0,0,0,0,0,0.0802,0.0779,0.0819,0.0843,0.0846,0.0854,0.0854,0.0855,0.0891,0.0892,0.0893,0.0893,0.0908,0.0908,0.0908,0.0888,0,0,0.0907,0.0907,0,0,0,0,0,0,0,0,0.0801,0.0803,0.0839,0.0841,0.0844,0.087,0.0846,0.0865,0.0891,0.0873,0.0893,0.0894,0.0893,0.0894,0.0898,0.0888,0.0889,0.0907,0.0907,0.0907,0.0906,0,0,0,0,0,0,0,0.0799,0.0802,0.0832,0.084,0.0843,0.085,0.0855,0.0849,0.0876,0.0874,0.0877,0.0882,0.0895,0.0898,0.0898,0.0889,0.0907,0.0907,0.0906,0.0906,0.0948,0.0949,0,0,0,0,0,0,0.0796,0.08,0.0831,0.0833,0.0826,0.085,0.0855,0.086,0.0877,0.0881,0.0882,0.0884,0.0898,0.0899,0.0899,0.095,0.0907,0.0906,0.0906,0.0947,0.0948,0.095,0,0,0,0,0,0,0.0795,0.0798,0.0829,0.0818,0.0823,0.085,0.0855,0.086,0.0891,0.0883,0.0886,0.091,0.0899,0.0899,0.0931,0.0948,0.0906,0.0906,0.0945,0.0947,0.0949,0.1005,0,0,0,0,0,0,0.0794,0.0798,0.081,0.0818,0.0824,0.0853,0.0855,0.086,0.0891,0.0895,0.0908,0.0909,0.0899,0.0932,0.0931,0.0947,0.0906,0.0944,0.0946,0.0948,0.1002,0.1009,0.1015,0,0,0,0,0,0.0792,0.0804,0.081,0.0814,0.0836,0.0854,0.0858,0.0879,0.0892,0.0909,0.0929,0.091,0.0946,0.0933,0.0932,0.0948,0.0943,0.0945,0.0948,0.0999,0.1008,0.1015,0,0,0,0,0,0,0.079,0.0809,0.0816,0.0832,0.0851,0.0861,0.0881,0.0894,0.0922,0.0931,0.0928,0.0931,0.0965,0.0951,0.0937,0.0968,0.0939,0.0942,0.0979,0.0986,0.0993,0.0993,0.0906,0,0,0,0,0,0.0794,0.0813,0.0826,0.0843,0.0853,0.0871,0.0886,0.0899,0.0919,0.0933,0.0945,0.0956,0.0969,0.0976,0.0983,0.0998,0.0998,0.1007,0.1014,0.1019,0.102,0.1054,0.1064,0.0959,0.0959,0.0959,0,0,0.0797,0.0812,0.0822,0.0845,0.0861,0.0878,0.0883,0.091,0.0931,0.0928,0.097,0.0983,0.0981,0.1007,0.1018,0.1,0.105,0.1023,0.1028,0.1025,0.1058,0.1068,0.1078,0.0961,0.0961,0.096,0,0,0.0809,0.0827,0.0845,0.0861,0.0889,0.09,0.0914,0.0939,0.096,0.0995,0.1003,0.1034,0.1048,0.1055,0.1057,0.1102,0.1089,0.1103,0.1131,0.1165,0.1174,0.1181,0.1198,0.1207,0.1101,0.1101,0.1101,0,0.0814,0.0834,0.0854,0.0873,0.0889,0.0913,0.0932,0.0953,0.0989,0.1009,0.1017,0.1067,0.1069,0.1099,0.1119,0.1116,0.1131,0.1101,0.1174,0.1181,0.1188,0.1204,0.1213,0.1104,0.1104,0.1103,0.1103,0,0.0829,0.0854,0.0867,0.0899,0.092,0.0941,0.0967,0.1001,0.1031,0.1049,0.1102,0.1118,0.1148,0.1153,0.115,0.1199,0.1193,0.1183,0.1153,0.1202,0.1215,0.1224,0.1108,0.1107,0.1106,0.1106,0,0,0.0819,0.0867,0.0875,0.0894,0.0935,0.0951,0.0994,0.1033,0.1065,0.1107,0.1153,0.1186,0.1206,0.1211,0.1217,0.1242,0.1306,0.1239,0.1239,0.1254,0.1381,0.1275,0.1273,0.1319,0.132,0.1322,0.1371,0,0.0827,0.0863,0.0888,0.0927,0.0946,0.0983,0.1018,0.1059,0.1098,0.1149,0.1181,0.1227,0.1224,0.1252,0.1281,0.1297,0.1331,0.1293,0.1331,0.1332,0.1231,0.128,0.1327,0.1377,0.1379,0.138,0.1381,0,0.0833,0.0857,0.0892,0.0942,0.0955,0.0986,0.1048,0.1082,0.115,0.1183,0.1239,0.1271,0.1323,0.1318,0.1377,0.1358,0.1382,0.1391,0.1393,0.1278,0.1241,0.1317,0.1396,0.1395,0.1394,0.1393,0.1392,0,0.081,0.0862,0.0891,0.0906,0.0962,0.0997,0.1036,0.1099,0.1135,0.1218,0.1257,0.1319,0.1366,0.1402,0.1431,0.1418,0.149,0.1469,0.1398,0.139,0.1445,0.1436,0.1529,0.1529,0.1529,0.1529,0.1529,0,0.0799,0.0826,0.0888,0.0901,0.0941,0.0991,0.1043,0.1091,0.1167,0.1207,0.128,0.1324,0.1396,0.1444,0.1456,0.1446,0.1516,0.1409,0.1399,0.1468,0.1461,0.1451,0.1442,0.1531,0.153,0.153,0.153,0,0.0767,0.0807,0.0839,0.0905,0.0931,0.0961,0.1045,0.1073,0.1158,0.1219,0.1256,0.1353,0.1405,0.1455,0.1515,0.1468,0.1472,0.1461,0.1533,0.1526,0.1343,0.1336,0.1369,0.1366,0.1363,0.1361,0.1359,0,0.0749,0.0766,0.0832,0.0846,0.088,0.0937,0.0967,0.1059,0.1093,0.1218,0.1239,0.134,0.139,0.1385,0.1441,0.1453,0.1443,0.1429,0.138,0.1341,0.1329,0.1326,0.1323,0.1354,0.1354,0.1353,0.1352,0,0.0709,0.0743,0.0766,0.0801,0.0835,0.0858,0.0921,0.0945,0.1047,0.1142,0.1198,0.1236,0.1294,0.1328,0.1357,0.1362,0.1418,0.14,0.1405,0.1359,0.1323,0.1314,0.1314,0.1343,0.1344,0.1345,0.1346,0,0.0679,0.0685,0.0722,0.0745,0.0776,0.0771,0.0809,0.086,0.0914,0.1064,0.1083,0.1184,0.1286,0.1283,0.1304,0.1301,0.1274,0.1218,0.1232,0.1243,0.1176,0.1111,0.1063,0,0,0,0,0,0.0651,0.0653,0.0663,0.0672,0.0694,0.0715,0.0773,0.0814,0.0931,0.0938,0.1012,0.1064,0.1105,0.1162,0.1132,0.1231,0.1266,0.1188,0.1205,0.129,0.1301,0.1232,0,0,0,0,0,0,0.0627,0.0645,0.0644,0.0608,0.0604,0.0614,0.0645,0.0711,0.073,0.086,0.0895,0.0991,0.1053,0.112,0.1114,0.1127,0.111,0.1258,0.1254,0.1283,0.1293,0.1302,0.1236,0,0,0,0,0]},{"header":{"parameterUnit":"m.s-1","parameterCategory":2,"la1":30.2991,"la2":30.254,"lo1":-89.0895,"lo2":-89.0444,"dy":0.0017,"dx":0.0017,"nx":28,"ny":28,"refTime":"2025-03-24T03:00:00:Z","depth":"4","parameterNumber":3,"parameterNumberName":"V-component_of_CURRENTS"},"data":[0,0,0,0,0,0,0,0,0,0,0,0,0,0,0,0,0,0,0,0,0,0,0,0,0,0,0,0,0,0,0,0,0,0,0,0,0,0,0,0,0,0,0,0,0,0,0,0,0,0,0,0,0,0,0,0,0,0,0.0256,0.0256,0,0.0259,0.0259,0.0259,0.0263,0.0263,0.0263,0.0263,0.0263,0.0263,0.0263,0,0,0,0,0,0,0,0,0,0,0,0,0,0.0234,0.0234,0.0256,0.0256,0.0256,0.0259,0.0259,0.0259,0.0263,0.0263,0.0263,0.0263,0.0263,0.0263,0.0263,0,0,0,0,0,0,0,0,0,0,0,0,0,0.024,0.0235,0.0256,0.0259,0.0259,0.0259,0.0259,0.0259,0.0263,0.0263,0.0263,0.0263,0.0263,0.0263,0.0263,0.0259,0,0,0.0263,0.0263,0,0,0,0,0,0,0,0,0.024,0.0241,0.0259,0.0259,0.0259,0.0261,0.0251,0.0259,0.0263,0.0261,0.0263,0.0263,0.0263,0.0263,0.0262,0.0259,0.0259,0.0263,0.0262,0.0262,0.0262,0,0,0,0,0,0,0,0.024,0.0241,0.0257,0.0259,0.0259,0.0253,0.0254,0.0253,0.026,0.0261,0.0261,0.0263,0.0263,0.0262,0.0262,0.0259,0.0263,0.0262,0.0262,0.0262,0.0257,0.0256,0,0,0,0,0,0,0.0241,0.0241,0.0257,0.0257,0.0251,0.0254,0.0255,0.026,0.026,0.0261,0.0262,0.0263,0.0262,0.0262,0.0262,0.0264,0.0262,0.0262,0.0262,0.0257,0.0257,0.0256,0,0,0,0,0,0,0.0241,0.0243,0.0257,0.0249,0.025,0.0254,0.0259,0.026,0.0263,0.0262,0.0262,0.0265,0.0262,0.0262,0.026,0.0264,0.0262,0.0262,0.0257,0.0257,0.0257,0.0263,0,0,0,0,0,0,0.024,0.0243,0.0247,0.0249,0.0251,0.0259,0.0259,0.026,0.0263,0.0264,0.0264,0.0264,0.0262,0.026,0.0259,0.0263,0.0262,0.0257,0.0257,0.0257,0.0263,0.0263,0.0264,0,0,0,0,0,0.024,0.0246,0.0247,0.0249,0.0257,0.0259,0.0259,0.0262,0.0263,0.0265,0.0262,0.0264,0.0259,0.026,0.0259,0.0263,0.0257,0.0257,0.0257,0.0263,0.0263,0.0264,0,0,0,0,0,0,0.0237,0.0247,0.0248,0.0257,0.0259,0.026,0.0263,0.0263,0.0263,0.0264,0.0262,0.0261,0.0261,0.0259,0.026,0.0261,0.0259,0.0259,0.0264,0.0264,0.0264,0.027,0.0262,0,0,0,0,0,0.0239,0.0248,0.0251,0.0258,0.026,0.0261,0.0263,0.0265,0.0265,0.0265,0.0264,0.0262,0.0259,0.026,0.0257,0.0257,0.0243,0.0259,0.026,0.026,0.0264,0.0241,0.0239,0.0256,0.0256,0.0256,0,0,0.0241,0.0246,0.0252,0.0258,0.026,0.0266,0.0263,0.0268,0.0272,0.0265,0.0269,0.0262,0.0258,0.0258,0.0258,0.0258,0.0246,0.026,0.026,0.0264,0.024,0.0239,0.0237,0.0256,0.0256,0.0256,0,0,0.0246,0.0253,0.0261,0.0264,0.0269,0.027,0.0272,0.0275,0.0277,0.0278,0.0272,0.0266,0.0266,0.0261,0.0259,0.0258,0.0247,0.026,0.0269,0.0246,0.0244,0.0243,0.0215,0.0211,0.0262,0.0262,0.0262,0,0.0247,0.0259,0.0262,0.0268,0.0274,0.0273,0.0282,0.0282,0.0283,0.0285,0.0282,0.0274,0.0268,0.0264,0.0264,0.0259,0.0243,0.0268,0.0246,0.0244,0.0243,0.0214,0.021,0.0262,0.0262,0.0262,0.0262,0,0.0257,0.0267,0.0272,0.0282,0.0287,0.0294,0.0297,0.0301,0.0303,0.0302,0.0299,0.0285,0.0282,0.0276,0.0271,0.0259,0.0249,0.0247,0.0245,0.0241,0.0212,0.0207,0.0263,0.0263,0.0263,0.0263,0,0,0.026,0.0277,0.0278,0.029,0.0297,0.0305,0.0312,0.032,0.0329,0.032,0.0327,0.031,0.0302,0.0298,0.0286,0.0265,0.0233,0.0254,0.0252,0.0226,0.0177,0.0164,0.0157,0.0226,0.0225,0.0225,0.0157,0,0.0268,0.0286,0.0291,0.0311,0.0323,0.0328,0.0339,0.0344,0.0345,0.035,0.0332,0.0333,0.0311,0.0312,0.0285,0.0251,0.0222,0.0251,0.0185,0.0183,0.0172,0.0152,0.0223,0.0154,0.0153,0.0152,0.0151,0,0.0276,0.0289,0.031,0.0337,0.0343,0.0355,0.0377,0.0387,0.0388,0.039,0.0379,0.0366,0.0338,0.0322,0.025,0.027,0.0224,0.0191,0.0187,0.0172,0.0161,0.016,0.0142,0.0143,0.0143,0.0144,0.0145,0,0.0282,0.0304,0.0325,0.0332,0.0359,0.0373,0.0389,0.0399,0.042,0.0417,0.0427,0.0387,0.0378,0.0313,0.0243,0.0246,0.0159,0.0155,0.0096,0.0094,0.0124,0.0126,0.0098,0.0099,0.0099,0.0099,0.0099,0,0.0288,0.0306,0.0332,0.0346,0.0381,0.0392,0.0429,0.0437,0.0458,0.0485,0.0451,0.0454,0.0376,0.032,0.0247,0.0154,0.0159,0.0091,0.0075,0.0127,0.0131,0.012,0.0123,0.0096,0.0097,0.0097,0.0098,0,0.0289,0.0304,0.0335,0.037,0.0386,0.0412,0.0467,0.0496,0.0506,0.0538,0.0542,0.0505,0.0428,0.0338,0.0232,0.0167,0.0077,0.0043,0.01,0.0089,0.0024,0.0028,-0.0033,-0.0034,-0.0035,-0.0036,-0.0037,0,0.0289,0.0304,0.0354,0.0383,0.0402,0.0447,0.0488,0.0521,0.0554,0.0567,0.0584,0.0525,0.0485,0.0321,0.0221,0.007,0.0052,-0.0001,0.0012,0.0019,0.001,0.0016,0.0021,-0.0038,-0.0038,-0.0038,-0.0039,0,0.0291,0.0311,0.0339,0.0398,0.0446,0.0504,0.0558,0.0588,0.0625,0.0633,0.0616,0.0536,0.0447,0.0321,0.0203,0.0097,0.003,-0.0011,-0.001,0.0002,0.0013,0.0006,0.0012,-0.0042,-0.0041,-0.0041,-0.0041,0,0.0296,0.0316,0.0358,0.041,0.0475,0.0541,0.0571,0.0611,0.0644,0.0655,0.0645,0.055,0.0498,0.0334,0.0227,0.0118,0.0091,0.0054,0.0051,0.0053,0.0099,0.0127,0.0088,0,0,0,0,0,0.0298,0.0323,0.037,0.0434,0.05,0.0541,0.0613,0.0641,0.0673,0.0666,0.0659,0.0575,0.0415,0.0347,0.0236,0.0204,0.0068,0.0069,0.0024,-0.0059,-0.0055,-0.0017,0,0,0,0,0,0,0.0299,0.034,0.0364,0.0444,0.0492,0.0572,0.0621,0.0647,0.0643,0.0652,0.0569,0.0535,0.0381,0.0474,0.0228,0.0196,0.015,-0.0002,-0.0005,-0.0061,-0.0057,-0.0055,-0.0015,0,0,0,0,0]}]]